Terug naar catalogus

FENGYUN 1C DEB

ActiefPO
NORAD 31615·DEBRIS·🇨🇳 China

Gelanceerd May 10, 1999 vanaf Taiyuan Satellite Launch Center

Loading…

Volgende Passages (komende 24 uur)

TLE

VersSource: Space-Track

Epoch: Sep 14, 2026, 10:59 UTC

1 31615U 99025BZV 26257.45780453  .00006539  00000-0  17870-2 0  9997
2 31615  99.1429 331.7415 0154320 227.3136 131.4967 14.40807369692421

Volg FENGYUN 1C DEB in realtime met AllMySat

Download on the App Store